Location: Waco, TX
(31.5480°N, 97.1670°W)
Time: 11:48:26
(UTC-06:00)

ISS - Pass Details

Date: 10 November 2017
Orbit: 402 x 407 km, 51.6° (Epoch: 20 November)

Event Time Altitude Azimuth Distance (km) Brightness Sun altitude
Rises 09:57:10 0° 297° (WNW) 2,311 -0.5 31.3°
Reaches altitude 10° 09:59:42 10° 277° (W) 1,449 -1.3 31.6°
Maximum altitude 10:01:56 17° 233° (SW) 1,084 -1.5 31.9°
Drops below altitude 10° 10:04:10 10° 189° (S) 1,444 -0.3 32.2°
Sets 10:06:42 0° 168° (SSE) 2,300 0.9 32.5°
